Content
SEND FEEDBACK

Daily
Averages
Monthly
Summary
United States of America

CHICAGO, ILLINOIS


Home > North America > United States > Illinois
Elevation: 674 feet     Latitude: 41 59N     Longitude: 087 54W

WEATHER
 
SELECT A DAY
Number of Records: 197,935;   Date Range: 7/8/95 - 10/24/14
 
SHARE

PRINT THIS DATA

[ ← Previous Day ]
WEATHER ALMANAC - JULY 3, 2013
[ Next Day → ]
[ °C ]   °F
Weather ElementAverageHighLow
Temperature65.6 °F72 °F (4:52 pm)62.1 °F (1:52 am)
Dewpoint59.9 °F63 °F (5:52 pm)57.2 °F (4:04 am)
Humidity81.9 %94 % (9:59 pm)71 % (4:52 pm)
Barometer30.06 in30.08 in (8:30 am)30.04 in (2:52 am)
Wind Speed3.4 mph8.1 mph (8:52 am)
Weather ElementAverage
Visibility7.3 mi
Wind DirectionSE (132.6 °)

Weather ElementTotal
Precipitation---
Cooling Degree Days2.1 (Base 65)
Growing Degree Days17.1 (Base 50)
Averaged from 39 records on July 3, 2013
WEATHER CONDITIONS BREAKOUT
WIND DIRECTION BREAKOUT
WEATHER BY HOUR - JULY 3, 2013
[ °C ]   °F
Local TimeTemperatureDewpointHumidityBarometerVisibilityWind DirectionWind SpeedGust SpeedPrecipitationEventsConditions
1:52 AM62.1 °F57.9 °F86 %30.06 in10.0 miNNE (30°)4.6 mphOvercast
2:52 AM62.1 °F57.9 °F86 %30.04 in10.0 miNorth (360°)4.6 mphOvercast
3:52 AM62.1 °F57.9 °F86 %30.04 in9.0 miNorth (360°)5.8 mphOvercast
4:04 AM62.6 °F57.2 °F82 %30.04 in9.0 miNorth (350°)5.8 mphOvercast
4:52 AM62.1 °F57.9 °F86 %30.04 in9.0 miNorth (360°)4.6 mphOvercast
4:59 AM62.6 °F57.2 °F82 %30.04 in9.0 miNNE (20°)4.6 mphOvercast
5:10 AM62.6 °F57.2 °F82 %30.04 in10.0 miNorth (10°)3.5 mphOvercast
5:28 AM62.6 °F57.2 °F82 %30.05 in10.0 miNNE (30°)5.8 mphOvercast
5:44 AM62.6 °F57.2 °F82 %30.05 in8.0 miNorth (350°)5.8 mphOvercast
5:52 AM62.1 °F57.9 °F86 %30.05 in9.0 miNorth (350°)3.5 mphOvercast
6:52 AM62.1 °F57.9 °F86 %30.05 in10.0 miNorth (350°)5.8 mphOvercast
7:17 AM62.6 °F57.2 °F82 %30.07 in10.0 miNNE (30°)3.5 mphOvercast
7:52 AM62.1 °F57.9 °F86 %30.07 in9.0 miNorth (10°)3.5 mphOvercast
8:23 AM62.6 °F57.2 °F82 %30.07 in9.0 miNorth (360°)4.6 mphOvercast
8:30 AM62.6 °F57.2 °F82 %30.08 in8.0 miNorth (350°)4.6 mphOvercast
8:52 AM63.0 °F57.9 °F84 %30.08 in10.0 miNNW (340°)8.1 mph0.00 inOvercast
9:52 AM64.0 °F59.0 °F84 %30.08 in8.0 miNorth (350°)5.8 mphOvercast
10:52 AM66.0 °F59.0 °F78 %30.08 in9.0 miCalmOvercast
11:06 AM66.2 °F59.0 °F78 %30.08 in9.0 miCalmOvercast
11:52 AM66.0 °F59.0 °F78 %30.08 in8.0 miCalmOvercast
12:52 PM66.0 °F59.0 °F78 %30.07 in8.0 miCalmOvercast
1:52 PM66.0 °F60.1 °F81 %30.07 in5.0 miENE (70°)4.6 mphHaze
2:52 PM66.9 °F62.1 °F84 %30.06 in6.0 miNNE (20°)4.6 mphHaze
2:57 PM66.2 °F60.8 °F83 %30.07 in6.0 miVariable3.5 mphHaze
3:52 PM71.1 °F62.1 °F73 %30.05 in6.0 miVariable4.6 mphHaze
3:59 PM71.6 °F62.6 °F73 %30.05 in6.0 miVariable5.8 mphHaze
4:03 PM71.6 °F62.6 °F73 %30.05 in6.0 miCalmHaze
4:52 PM72.0 °F62.1 °F71 %30.04 in5.0 miWest (270°)6.9 mphHaze
4:59 PM71.6 °F62.6 °F73 %30.05 in5.0 miWSW (250°)3.5 mphHaze
5:09 PM71.6 °F62.6 °F73 %30.05 in6.0 miCalmHaze
5:52 PM72.0 °F63.0 °F73 %30.04 in6.0 miCalmHaze
5:59 PM71.6 °F62.6 °F73 %30.04 in6.0 miSW (220°)3.5 mphHaze
6:52 PM68.0 °F63.0 °F84 %30.05 in5.0 miSE (130°)5.8 mphHaze
7:52 PM66.9 °F63.0 °F87 %30.05 in4.0 miEast (90°)3.5 mph0.00 inOvercast
8:52 PM66.0 °F63.0 °F90 %30.05 in5.0 miESE (110°)3.5 mphOvercast
9:52 PM66.0 °F62.1 °F87 %30.07 in5.0 miCalmOvercast
9:59 PM64.4 °F62.6 °F94 %30.08 in5.0 miCalmPartly Cloudy
10:52 PM64.0 °F61.0 °F90 %30.08 in4.0 miCalmPartly Cloudy
11:52 PM63.0 °F61.0 °F93 %30.08 in4.0 miCalmMostly Cloudy
Hourly data recorded from KPWK, located miles away from Chicago, Illinois







STORIES FROM OUR PARTNERS